Time,TemperatureF,DewpointF,PressureIn,WindDirection,WindDirectionDegrees,WindSpeedMPH,WindSpeedGustMPH,Humidity,HourlyPrecipIn,Conditions,Clouds,dailyrainin,SoftwareType,DateUTC
2013-01-27 00:02:00,47.1,22.6,29.85,East,93,2.5,5.4,38,0.00,,,0.00,WUHU216WMR968SP,2013-01-27 06:02:00,
2013-01-27 00:07:00,47.1,22.6,29.85,SE,128,3.2,6.3,38,0.00,,,0.00,WUHU216WMR968SP,2013-01-27 06:07:00,
2013-01-27 00:12:00,47.1,22.6,29.85,East,83,0.0,6.3,38,0.00,,,0.00,WUHU216WMR968SP,2013-01-27 06:12:00,
2013-01-27 00:17:00,47.1,22.6,29.85,South,170,2.2,3.1,38,0.00,,,0.00,WUHU216WMR968SP,2013-01-27 06:17:00,
2013-01-27 00:22:00,47.1,22.6,29.85,NE,44,0.0,3.1,38,0.00,,,0.00,WUHU216WMR968SP,2013-01-27 06:22:00,
2013-01-27 00:27:00,47.1,22.6,29.85,ESE,111,2.2,4.0,38,0.00,,,0.00,WUHU216WMR968SP,2013-01-27 06:27:00,
2013-01-27 00:32:00,47.3,22.8,29.85,ENE,62,2.7,4.0,38,0.00,,,0.00,WUHU216WMR968SP,2013-01-27 06:32:00,
2013-01-27 00:37:00,47.3,22.8,29.85,ESE,102,3.1,4.5,38,0.00,,,0.00,WUHU216WMR968SP,2013-01-27 06:37:00,
2013-01-27 00:42:00,47.3,22.8,29.85,NE,47,2.2,4.5,38,0.00,,,0.00,WUHU216WMR968SP,2013-01-27 06:42:00,
2013-01-27 00:47:00,47.3,22.8,29.85,ESE,102,0.0,4.0,38,0.00,,,0.00,WUHU216WMR968SP,2013-01-27 06:47:00,
2013-01-27 00:52:00,47.5,22.9,29.85,SE,139,0.0,3.1,38,0.00,,,0.00,WUHU216WMR968SP,2013-01-27 06:52:00,
2013-01-27 00:57:00,47.5,22.9,29.85,East,99,0.0,4.9,38,0.00,,,0.00,WUHU216WMR968SP,2013-01-27 06:57:00,
2013-01-27 01:02:00,47.5,22.9,29.85,ESE,105,3.1,5.8,38,0.00,,,0.00,WUHU216WMR968SP,2013-01-27 07:02:00,
2013-01-27 01:07:00,47.5,22.9,29.85,SSE,168,2.2,5.8,38,0.00,,,0.00,WUHU216WMR968SP,2013-01-27 07:07:00,
2013-01-27 01:13:00,47.5,22.9,29.85,South,169,3.1,5.4,38,0.00,,,0.00,WUHU216WMR968SP,2013-01-27 07:13:00,
2013-01-27 01:18:00,47.5,22.9,29.85,ESE,114,3.6,5.4,38,0.00,,,0.00,WUHU216WMR968SP,2013-01-27 07:18:00,
2013-01-27 01:23:00,47.5,22.9,29.85,ESE,121,3.6,6.3,38,0.00,,,0.00,WUHU216WMR968SP,2013-01-27 07:23:00,
2013-01-27 01:28:00,47.5,23.6,29.85,SSE,164,2.7,6.3,39,0.00,,,0.00,WUHU216WMR968SP,2013-01-27 07:28:00,
2013-01-27 01:33:00,47.5,23.6,29.85,SSE,151,3.1,6.3,39,0.00,,,0.00,WUHU216WMR968SP,2013-01-27 07:33:00,
2013-01-27 01:38:00,47.5,23.6,29.85,SE,145,0.0,6.3,39,0.00,,,0.00,WUHU216WMR968SP,2013-01-27 07:38:00,
2013-01-27 01:43:00,47.3,23.4,29.85,ESE,104,0.0,3.1,39,0.00,,,0.00,WUHU216WMR968SP,2013-01-27 07:43:00,
2013-01-27 01:48:00,47.3,23.4,29.85,ESE,105,0.0,0.0,39,0.00,,,0.00,WUHU216WMR968SP,2013-01-27 07:48:00,
2013-01-27 01:53:00,47.3,23.4,29.85,ESE,121,0.0,0.0,39,0.00,,,0.00,WUHU216WMR968SP,2013-01-27 07:53:00,
2013-01-27 01:58:00,47.3,23.4,29.85,East,90,3.1,4.9,39,0.00,,,0.00,WUHU216WMR968SP,2013-01-27 07:58:00,
2013-01-27 02:03:00,47.3,24.0,29.85,SSE,147,2.2,4.9,40,0.00,,,0.00,WUHU216WMR968SP,2013-01-27 08:03:00,
2013-01-27 02:08:00,47.3,24.0,29.85,SSE,149,2.2,4.0,40,0.00,,,0.00,WUHU216WMR968SP,2013-01-27 08:08:00,
2013-01-27 02:13:00,47.3,24.0,29.85,ESE,108,2.2,3.6,40,0.00,,,0.00,WUHU216WMR968SP,2013-01-27 08:13:00,
2013-01-27 02:18:00,47.3,24.0,29.85,East,92,2.2,3.6,40,0.00,,,0.00,WUHU216WMR968SP,2013-01-27 08:18:00,
2013-01-27 02:23:00,47.3,24.0,29.85,ESE,109,2.7,5.4,40,0.00,,,0.00,WUHU216WMR968SP,2013-01-27 08:23:00,
2013-01-27 02:28:00,47.3,24.0,29.85,SE,135,0.0,6.3,40,0.00,,,0.00,WUHU216WMR968SP,2013-01-27 08:28:00,
2013-01-27 02:33:00,47.3,24.0,29.85,SE,131,2.2,6.3,40,0.00,,,0.00,WUHU216WMR968SP,2013-01-27 08:33:00,
2013-01-27 02:38:00,47.3,24.0,29.85,South,175,2.2,3.6,40,0.00,,,0.00,WUHU216WMR968SP,2013-01-27 08:38:00,
2013-01-27 02:43:00,47.3,24.0,29.85,East,92,2.7,4.9,40,0.00,,,0.00,WUHU216WMR968SP,2013-01-27 08:43:00,
2013-01-27 02:49:00,47.3,24.0,29.85,ESE,118,2.7,4.9,40,0.00,,,0.00,WUHU216WMR968SP,2013-01-27 08:49:00,
2013-01-27 02:54:00,47.3,24.0,29.85,SE,130,0.0,4.0,40,0.00,,,0.00,WUHU216WMR968SP,2013-01-27 08:54:00,
2013-01-27 02:59:00,47.3,24.0,29.85,ESE,105,2.7,4.0,40,0.00,,,0.00,WUHU216WMR968SP,2013-01-27 08:59:00,
2013-01-27 03:04:00,47.5,24.2,29.85,NE,49,0.0,3.1,40,0.00,,,0.00,WUHU216WMR968SP,2013-01-27 09:04:00,
2013-01-27 03:09:00,47.5,24.2,29.85,NE,51,2.2,4.0,40,0.00,,,0.00,WUHU216WMR968SP,2013-01-27 09:09:00,
2013-01-27 03:14:00,47.5,24.2,29.85,East,98,0.0,4.0,40,0.00,,,0.00,WUHU216WMR968SP,2013-01-27 09:14:00,
2013-01-27 03:19:00,47.5,24.2,29.85,ESE,102,2.2,4.0,40,0.00,,,0.00,WUHU216WMR968SP,2013-01-27 09:19:00,
2013-01-27 03:24:00,47.7,23.7,29.85,ESE,115,0.0,3.6,39,0.00,,,0.00,WUHU216WMR968SP,2013-01-27 09:24:00,
2013-01-27 03:29:00,47.7,24.4,29.83,East,91,2.7,4.9,40,0.00,,,0.00,WUHU216WMR968SP,2013-01-27 09:29:00,
2013-01-27 03:34:00,47.7,24.4,29.83,SSE,159,3.1,4.9,40,0.00,,,0.00,WUHU216WMR968SP,2013-01-27 09:34:00,
2013-01-27 03:39:00,47.8,23.8,29.83,ESE,106,2.7,5.8,39,0.00,,,0.00,WUHU216WMR968SP,2013-01-27 09:39:00,
2013-01-27 03:44:00,47.8,23.8,29.83,ESE,110,2.2,5.8,39,0.00,,,0.00,WUHU216WMR968SP,2013-01-27 09:44:00,
2013-01-27 03:49:00,47.8,24.4,29.83,ESE,119,0.0,3.6,40,0.00,,,0.00,WUHU216WMR968SP,2013-01-27 09:49:00,
2013-01-27 03:54:00,47.8,24.4,29.83,ESE,108,3.1,4.5,40,0.00,,,0.00,WUHU216WMR968SP,2013-01-27 09:54:00,
2013-01-27 03:59:00,47.8,24.4,29.83,ESE,114,0.0,4.5,40,0.00,,,0.00,WUHU216WMR968SP,2013-01-27 09:59:00,
2013-01-27 04:04:00,48.0,24.6,29.83,SSE,151,0.0,3.6,40,0.00,,,0.00,WUHU216WMR968SP,2013-01-27 10:04:00,
2013-01-27 04:09:00,48.0,24.6,29.83,ESE,114,2.7,3.6,40,0.00,,,0.00,WUHU216WMR968SP,2013-01-27 10:09:00,
2013-01-27 04:14:00,48.0,24.6,29.83,ESE,108,2.2,4.0,40,0.00,,,0.00,WUHU216WMR968SP,2013-01-27 10:14:00,
2013-01-27 04:19:00,48.0,24.6,29.83,SE,138,0.0,4.0,40,0.00,,,0.00,WUHU216WMR968SP,2013-01-27 10:19:00,
2013-01-27 04:24:00,48.2,24.8,29.83,SE,129,0.0,3.6,40,0.00,,,0.00,WUHU216WMR968SP,2013-01-27 10:24:00,
2013-01-27 04:29:00,48.2,24.8,29.83,South,191,2.3,4.0,40,0.00,,,0.00,WUHU216WMR968SP,2013-01-27 10:29:00,
2013-01-27 04:34:00,48.2,24.8,29.83,ESE,110,2.7,4.0,40,0.00,,,0.00,WUHU216WMR968SP,2013-01-27 10:34:00,
2013-01-27 04:39:00,48.2,24.8,29.83,ENE,76,0.0,4.0,40,0.00,,,0.00,WUHU216WMR968SP,2013-01-27 10:39:00,
2013-01-27 04:44:00,48.2,24.8,29.83,ESE,103,0.0,0.0,40,0.00,,,0.00,WUHU216WMR968SP,2013-01-27 10:44:00,
2013-01-27 04:49:00,48.2,24.8,29.83,ESE,120,2.7,4.0,40,0.00,,,0.00,WUHU216WMR968SP,2013-01-27 10:49:00,
2013-01-27 04:54:00,48.2,24.8,29.83,ESE,108,2.2,4.0,40,0.00,,,0.00,WUHU216WMR968SP,2013-01-27 10:54:00,
2013-01-27 04:59:00,48.2,24.8,29.83,SE,126,2.2,4.0,40,0.00,,,0.00,WUHU216WMR968SP,2013-01-27 10:59:00,
2013-01-27 05:04:00,48.2,24.8,29.83,ESE,113,2.7,4.0,40,0.00,,,0.00,WUHU216WMR968SP,2013-01-27 11:04:00,
2013-01-27 05:09:00,48.2,24.8,29.83,East,101,0.0,4.0,40,0.00,,,0.00,WUHU216WMR968SP,2013-01-27 11:09:00,
2013-01-27 05:14:00,48.2,25.4,29.83,East,101,2.7,3.6,41,0.00,,,0.00,WUHU216WMR968SP,2013-01-27 11:14:00,
2013-01-27 05:19:00,48.4,25.0,29.83,SE,128,2.7,4.0,40,0.00,,,0.00,WUHU216WMR968SP,2013-01-27 11:19:00,
2013-01-27 05:24:00,48.4,25.0,29.83,SSW,194,0.0,4.0,40,0.00,,,0.00,WUHU216WMR968SP,2013-01-27 11:24:00,
2013-01-27 05:29:00,48.4,25.0,29.85,SSE,163,3.6,5.8,40,0.00,,,0.00,WUHU216WMR968SP,2013-01-27 11:29:00,
2013-01-27 05:34:00,48.6,25.2,29.85,SE,142,3.0,5.8,40,0.00,,,0.00,WUHU216WMR968SP,2013-01-27 11:34:00,
2013-01-27 05:39:00,48.7,25.3,29.85,South,169,3.8,6.3,40,0.00,,,0.00,WUHU216WMR968SP,2013-01-27 11:39:00,
2013-01-27 05:44:00,48.7,24.6,29.83,SSE,163,3.1,6.3,39,0.00,,,0.00,WUHU216WMR968SP,2013-01-27 11:44:00,
2013-01-27 05:49:00,48.9,24.8,29.83,ESE,107,3.6,5.4,39,0.00,,,0.00,WUHU216WMR968SP,2013-01-27 11:49:00,
2013-01-27 05:54:00,48.9,24.8,29.83,ESE,122,4.0,8.1,39,0.00,,,0.00,WUHU216WMR968SP,2013-01-27 11:54:00,
2013-01-27 05:59:00,48.9,24.8,29.83,SSE,149,3.7,8.1,39,0.00,,,0.00,WUHU216WMR968SP,2013-01-27 11:59:00,
2013-01-27 06:04:00,48.9,24.8,29.83,South,184,4.0,6.3,39,0.00,,,0.00,WUHU216WMR968SP,2013-01-27 12:04:00,
2013-01-27 06:09:00,48.9,24.8,29.83,SSE,160,3.8,6.3,39,0.00,,,0.00,WUHU216WMR968SP,2013-01-27 12:09:00,
2013-01-27 06:14:00,48.9,24.8,29.85,SE,139,4.0,5.8,39,0.00,,,0.00,WUHU216WMR968SP,2013-01-27 12:14:00,
2013-01-27 06:19:00,49.1,25.0,29.85,SSW,197,3.1,6.3,39,0.00,,,0.00,WUHU216WMR968SP,2013-01-27 12:19:00,
2013-01-27 06:24:00,49.1,25.0,29.85,SE,132,2.7,6.3,39,0.00,,,0.00,WUHU216WMR968SP,2013-01-27 12:24:00,
2013-01-27 06:29:00,49.1,25.0,29.85,SE,127,4.5,6.3,39,0.00,,,0.00,WUHU216WMR968SP,2013-01-27 12:29:00,
2013-01-27 06:34:00,49.1,25.0,29.85,South,181,3.5,6.3,39,0.00,,,0.00,WUHU216WMR968SP,2013-01-27 12:34:00,
2013-01-27 06:39:00,49.1,25.0,29.85,South,180,4.5,6.3,39,0.00,,,0.00,WUHU216WMR968SP,2013-01-27 12:39:00,
2013-01-27 06:44:00,49.1,25.0,29.85,ESE,103,4.5,8.7,39,0.00,,,0.00,WUHU216WMR968SP,2013-01-27 12:44:00,
2013-01-27 06:49:00,49.1,25.0,29.85,SE,138,3.5,8.7,39,0.00,,,0.00,WUHU216WMR968SP,2013-01-27 12:49:00,
2013-01-27 06:54:00,49.1,25.0,29.85,SE,139,2.9,8.1,39,0.00,,,0.00,WUHU216WMR968SP,2013-01-27 12:54:00,
2013-01-27 06:59:00,49.1,25.0,29.85,SE,146,2.2,5.4,39,0.00,,,0.00,WUHU216WMR968SP,2013-01-27 12:59:00,
2013-01-27 07:04:00,49.1,25.6,29.85,SE,136,4.9,8.3,40,0.00,,,0.00,WUHU216WMR968SP,2013-01-27 13:04:00,
2013-01-27 07:10:00,49.1,25.6,29.85,South,176,3.0,8.3,40,0.00,,,0.00,WUHU216WMR968SP,2013-01-27 13:10:00,
2013-01-27 07:15:00,49.1,25.6,29.85,SSW,206,2.7,7.6,40,0.00,,,0.00,WUHU216WMR968SP,2013-01-27 13:15:00,
2013-01-27 07:20:00,49.3,25.8,29.85,SSE,160,2.7,7.6,40,0.00,,,0.00,WUHU216WMR968SP,2013-01-27 13:20:00,
2013-01-27 07:25:00,49.3,25.2,29.85,SE,126,2.9,6.3,39,0.00,,,0.00,WUHU216WMR968SP,2013-01-27 13:25:00,
2013-01-27 07:30:00,49.5,26.0,29.85,SE,144,3.8,7.6,40,0.00,,,0.00,WUHU216WMR968SP,2013-01-27 13:30:00,
2013-01-27 07:35:00,49.5,25.4,29.85,SE,130,4.0,7.6,39,0.00,,,0.00,WUHU216WMR968SP,2013-01-27 13:35:00,
2013-01-27 07:40:00,49.6,25.4,29.85,SSW,196,4.0,7.6,39,0.00,,,0.00,WUHU216WMR968SP,2013-01-27 13:40:00,
2013-01-27 07:45:00,49.8,25.6,29.85,SE,145,3.2,7.6,39,0.00,,,0.00,WUHU216WMR968SP,2013-01-27 13:45:00,
2013-01-27 07:50:00,49.8,25.6,29.85,SE,139,4.9,7.6,39,0.00,,,0.00,WUHU216WMR968SP,2013-01-27 13:50:00,
2013-01-27 07:55:00,50.0,25.8,29.85,SSE,167,3.2,7.6,39,0.00,,,0.00,WUHU216WMR968SP,2013-01-27 13:55:00,
2013-01-27 08:00:00,50.0,25.8,29.85,SSE,166,2.5,5.4,39,0.00,,,0.00,WUHU216WMR968SP,2013-01-27 14:00:00,
2013-01-27 08:05:00,50.2,26.0,29.85,South,181,3.6,5.8,39,0.00,,,0.00,WUHU216WMR968SP,2013-01-27 14:05:00,
2013-01-27 08:10:00,50.4,26.2,29.85,South,171,3.7,5.8,39,0.00,,,0.00,WUHU216WMR968SP,2013-01-27 14:10:00,
2013-01-27 08:15:00,50.4,25.5,29.85,SSE,160,3.1,5.8,38,0.00,,,0.00,WUHU216WMR968SP,2013-01-27 14:15:00,
2013-01-27 08:20:00,50.5,26.3,29.85,South,169,3.4,5.8,39,0.00,,,0.00,WUHU216WMR968SP,2013-01-27 14:20:00,
2013-01-27 08:25:00,50.7,25.8,29.85,SSE,163,4.5,8.1,38,0.00,,,0.00,WUHU216WMR968SP,2013-01-27 14:25:00,
2013-01-27 08:30:00,50.9,26.6,29.85,South,179,3.9,8.1,39,0.00,,,0.00,WUHU216WMR968SP,2013-01-27 14:30:00,
2013-01-27 08:35:00,51.1,26.2,29.85,SSW,207,4.5,6.7,38,0.00,,,0.00,WUHU216WMR968SP,2013-01-27 14:35:00,
2013-01-27 08:40:00,51.4,27.1,29.85,South,172,4.6,6.3,39,0.00,,,0.00,WUHU216WMR968SP,2013-01-27 14:40:00,
2013-01-27 08:45:00,51.6,26.6,29.85,South,177,3.7,6.3,38,0.00,,,0.00,WUHU216WMR968SP,2013-01-27 14:45:00,
2013-01-27 08:50:00,52.0,27.0,29.85,East,95,4.5,6.3,38,0.00,,,0.00,WUHU216WMR968SP,2013-01-27 14:50:00,
2013-01-27 08:55:00,52.2,27.1,29.85,South,180,3.7,8.1,38,0.00,,,0.00,WUHU216WMR968SP,2013-01-27 14:55:00,
2013-01-27 09:00:00,52.7,27.6,29.85,SSE,166,5.8,8.7,38,0.00,,,0.00,WUHU216WMR968SP,2013-01-27 15:00:00,
2013-01-27 09:05:00,53.1,27.9,29.85,SSE,166,4.0,8.7,38,0.00,,,0.00,WUHU216WMR968SP,2013-01-27 15:05:00,
2013-01-27 09:10:00,53.6,27.7,29.85,SE,142,6.3,8.7,37,0.00,,,0.00,WUHU216WMR968SP,2013-01-27 15:10:00,
2013-01-27 09:15:00,53.6,27.7,29.85,South,189,6.3,8.7,37,0.00,,,0.00,WUHU216WMR968SP,2013-01-27 15:15:00,
2013-01-27 09:20:00,53.4,27.6,29.85,South,180,5.8,8.3,37,0.00,,,0.00,WUHU216WMR968SP,2013-01-27 15:20:00,
2013-01-27 09:25:00,53.2,28.0,29.85,South,169,6.7,8.3,38,0.00,,,0.00,WUHU216WMR968SP,2013-01-27 15:25:00,
2013-01-27 09:30:00,53.4,28.2,29.88,South,174,5.0,8.3,38,0.00,,,0.00,WUHU216WMR968SP,2013-01-27 15:30:00,
2013-01-27 09:35:00,53.6,28.4,29.88,South,170,5.2,8.3,38,0.00,,,0.00,WUHU216WMR968SP,2013-01-27 15:35:00,
2013-01-27 09:40:00,53.6,28.4,29.88,South,176,5.5,8.3,38,0.00,,,0.00,WUHU216WMR968SP,2013-01-27 15:40:00,
2013-01-27 09:45:00,54.0,28.8,29.88,SSW,196,4.0,8.1,38,0.00,,,0.00,WUHU216WMR968SP,2013-01-27 15:45:00,
2013-01-27 09:50:00,54.3,29.0,29.88,SSE,155,5.8,8.1,38,0.00,,,0.00,WUHU216WMR968SP,2013-01-27 15:50:00,
2013-01-27 09:55:00,54.9,28.9,29.88,ESE,122,4.0,8.1,37,0.00,,,0.00,WUHU216WMR968SP,2013-01-27 15:55:00,
2013-01-27 10:00:00,55.4,29.3,29.88,SE,136,4.5,7.6,37,0.00,,,0.00,WUHU216WMR968SP,2013-01-27 16:00:00,
2013-01-27 10:05:00,55.9,29.1,29.88,SSE,165,5.8,8.3,36,0.00,,,0.00,WUHU216WMR968SP,2013-01-27 16:05:00,
2013-01-27 10:10:00,56.3,29.5,29.88,South,169,4.7,8.3,36,0.00,,,0.00,WUHU216WMR968SP,2013-01-27 16:10:00,
2013-01-27 10:15:00,57.0,30.1,29.88,South,178,5.8,8.1,36,0.00,,,0.00,WUHU216WMR968SP,2013-01-27 16:15:00,
2013-01-27 10:20:00,57.4,30.4,29.88,SSE,168,4.0,8.1,36,0.00,,,0.00,WUHU216WMR968SP,2013-01-27 16:20:00,
2013-01-27 10:25:00,57.6,29.9,29.88,South,176,7.2,8.3,35,0.00,,,0.00,WUHU216WMR968SP,2013-01-27 16:25:00,
2013-01-27 10:30:00,57.6,29.9,29.85,SE,130,5.8,8.3,35,0.00,,,0.00,WUHU216WMR968SP,2013-01-27 16:30:00,
2013-01-27 10:35:00,57.6,29.9,29.85,SSE,160,5.5,8.1,35,0.00,,,0.00,WUHU216WMR968SP,2013-01-27 16:35:00,
2013-01-27 10:40:00,57.4,29.7,29.85,SSE,158,4.7,8.7,35,0.00,,,0.00,WUHU216WMR968SP,2013-01-27 16:40:00,
2013-01-27 10:45:00,56.8,29.9,29.85,SSE,161,4.0,8.7,36,0.00,,,0.00,WUHU216WMR968SP,2013-01-27 16:45:00,
2013-01-27 10:50:00,56.5,32.0,29.85,South,181,4.9,7.6,37,0.00,,,0.00,WUHU216WMR968SP,2013-01-27 16:50:00,
2013-01-27 10:55:00,56.8,32.0,29.85,South,175,4.4,7.6,37,0.00,,,0.00,WUHU216WMR968SP,2013-01-27 16:55:00,
2013-01-27 11:00:00,57.4,32.0,29.85,South,185,4.5,5.8,37,0.00,,,0.00,WUHU216WMR968SP,2013-01-27 17:00:00,
2013-01-27 11:05:00,58.5,32.0,29.85,South,189,7.2,8.1,37,0.00,,,0.00,WUHU216WMR968SP,2013-01-27 17:05:00,
2013-01-27 11:10:00,59.4,32.0,29.85,SSE,167,7.6,10.1,36,0.00,,,0.00,WUHU216WMR968SP,2013-01-27 17:10:00,
2013-01-27 11:15:00,58.8,32.0,29.85,SSE,157,6.3,10.1,37,0.00,,,0.00,WUHU216WMR968SP,2013-01-27 17:15:00,
2013-01-27 11:20:00,59.2,32.0,29.85,SSE,162,4.8,8.7,36,0.00,,,0.00,WUHU216WMR968SP,2013-01-27 17:20:00,
2013-01-27 11:25:00,59.7,32.0,29.85,South,173,5.3,8.1,36,0.00,,,0.00,WUHU216WMR968SP,2013-01-27 17:25:00,
2013-01-27 11:30:00,60.3,33.8,29.85,South,185,5.4,8.1,36,0.00,,,0.00,WUHU216WMR968SP,2013-01-27 17:30:00,
2013-01-27 11:35:00,60.8,33.8,29.85,South,184,5.3,8.3,36,0.00,,,0.00,WUHU216WMR968SP,2013-01-27 17:35:00,
2013-01-27 11:40:00,61.5,33.8,29.85,SE,145,5.4,8.3,35,0.00,,,0.00,WUHU216WMR968SP,2013-01-27 17:40:00,
2013-01-27 11:45:00,61.3,33.8,29.85,SSW,193,6.3,8.3,35,0.00,,,0.00,WUHU216WMR968SP,2013-01-27 17:45:00,
2013-01-27 11:50:00,61.5,33.8,29.85,South,182,6.6,10.1,35,0.00,,,0.00,WUHU216WMR968SP,2013-01-27 17:50:00,
2013-01-27 11:55:00,61.7,33.8,29.85,SSW,194,4.9,10.1,35,0.00,,,0.00,WUHU216WMR968SP,2013-01-27 17:55:00,
2013-01-27 12:00:00,61.3,33.8,29.85,SSW,198,5.4,7.6,36,0.00,,,0.00,WUHU216WMR968SP,2013-01-27 18:00:00,
2013-01-27 12:05:00,61.2,33.8,29.85,SSW,199,5.8,7.6,36,0.00,,,0.00,WUHU216WMR968SP,2013-01-27 18:05:00,
2013-01-27 12:10:00,61.3,33.8,29.85,South,176,4.2,7.6,36,0.00,,,0.00,WUHU216WMR968SP,2013-01-27 18:10:00,
2013-01-27 12:15:00,61.5,33.8,29.83,South,181,3.7,7.6,36,0.00,,,0.00,WUHU216WMR968SP,2013-01-27 18:15:00,
2013-01-27 12:20:00,61.7,35.6,29.83,ESE,121,3.6,6.3,36,0.00,,,0.00,WUHU216WMR968SP,2013-01-27 18:20:00,
2013-01-27 12:25:00,62.2,35.6,29.83,SSE,167,4.7,6.3,36,0.00,,,0.00,WUHU216WMR968SP,2013-01-27 18:25:00,
2013-01-27 12:30:00,61.9,35.6,29.83,South,185,4.9,6.7,36,0.00,,,0.00,WUHU216WMR968SP,2013-01-27 18:30:00,
2013-01-27 12:35:00,62.2,35.6,29.83,SSW,198,5.4,9.6,37,0.00,,,0.00,WUHU216WMR968SP,2013-01-27 18:35:00,
2013-01-27 12:40:00,62.2,35.6,29.83,SSW,195,7.0,9.6,37,0.00,,,0.00,WUHU216WMR968SP,2013-01-27 18:40:00,
2013-01-27 12:45:00,62.2,37.4,29.80,SE,132,5.8,9.2,38,0.00,,,0.00,WUHU216WMR968SP,2013-01-27 18:45:00,
2013-01-27 12:51:00,62.6,35.6,29.80,South,190,5.4,8.7,37,0.00,,,0.00,WUHU216WMR968SP,2013-01-27 18:51:00,
2013-01-27 12:56:00,62.6,35.6,29.80,SSE,163,6.0,8.3,37,0.00,,,0.00,WUHU216WMR968SP,2013-01-27 18:56:00,
2013-01-27 13:01:00,62.1,37.4,29.80,SSE,165,5.8,8.3,38,0.00,,,0.00,WUHU216WMR968SP,2013-01-27 19:01:00,
2013-01-27 13:06:00,62.2,37.4,29.80,South,169,4.6,8.3,38,0.00,,,0.00,WUHU216WMR968SP,2013-01-27 19:06:00,
2013-01-27 13:11:00,62.4,37.4,29.80,South,172,5.7,8.3,39,0.00,,,0.00,WUHU216WMR968SP,2013-01-27 19:11:00,
2013-01-27 13:16:00,62.4,37.4,29.80,SSE,153,4.3,8.1,39,0.00,,,0.00,WUHU216WMR968SP,2013-01-27 19:16:00,
2013-01-27 13:21:00,62.4,37.4,29.80,South,185,6.7,8.3,39,0.00,,,0.00,WUHU216WMR968SP,2013-01-27 19:21:00,
2013-01-27 13:26:00,62.6,37.4,29.80,SSE,164,5.6,8.3,38,0.00,,,0.00,WUHU216WMR968SP,2013-01-27 19:26:00,
2013-01-27 13:31:00,63.0,37.4,29.80,South,185,6.1,8.7,38,0.00,,,0.00,WUHU216WMR968SP,2013-01-27 19:31:00,
2013-01-27 13:36:00,63.3,37.4,29.80,SSW,196,5.8,8.7,38,0.00,,,0.00,WUHU216WMR968SP,2013-01-27 19:36:00,
2013-01-27 13:41:00,63.1,35.6,29.80,SSE,159,5.4,8.3,37,0.00,,,0.00,WUHU216WMR968SP,2013-01-27 19:41:00,
2013-01-27 13:46:00,63.0,37.4,29.77,South,176,6.0,8.3,38,0.00,,,0.00,WUHU216WMR968SP,2013-01-27 19:46:00,
2013-01-27 13:51:00,62.8,37.4,29.77,SSW,192,3.9,8.3,38,0.00,,,0.00,WUHU216WMR968SP,2013-01-27 19:51:00,
2013-01-27 13:56:00,62.4,37.4,29.77,South,170,5.2,7.6,39,0.00,,,0.00,WUHU216WMR968SP,2013-01-27 19:56:00,
2013-01-27 14:01:00,62.2,37.4,29.80,South,181,3.3,7.6,40,0.00,,,0.00,WUHU216WMR968SP,2013-01-27 20:01:00,
2013-01-27 14:06:00,62.4,37.4,29.80,South,180,3.7,5.8,40,0.00,,,0.00,WUHU216WMR968SP,2013-01-27 20:06:00,
2013-01-27 14:10:00,63.1,37.4,29.80,South,176,4.2,5.8,40,0.00,,,0.00,WUHU216WMR968SP,2013-01-27 20:10:00,
2013-01-27 14:15:00,64.2,39.2,29.80,South,173,5.3,8.1,39,0.00,,,0.00,WUHU216WMR968SP,2013-01-27 20:15:00,
2013-01-27 14:20:00,64.8,37.4,29.80,South,183,7.3,9.2,37,0.00,,,0.00,WUHU216WMR968SP,2013-01-27 20:20:00,
2013-01-27 14:25:00,64.8,37.4,29.80,South,188,6.3,9.2,37,0.00,,,0.00,WUHU216WMR968SP,2013-01-27 20:25:00,
2013-01-27 14:30:00,64.2,39.2,29.80,South,172,4.6,8.1,38,0.00,,,0.00,WUHU216WMR968SP,2013-01-27 20:30:00,
2013-01-27 14:35:00,63.7,39.2,29.80,SSE,159,5.4,8.3,39,0.00,,,0.00,WUHU216WMR968SP,2013-01-27 20:35:00,
2013-01-27 14:40:00,63.1,37.4,29.80,South,169,3.9,8.3,40,0.00,,,0.00,WUHU216WMR968SP,2013-01-27 20:40:00,
2013-01-27 14:45:00,62.4,39.2,29.77,South,176,3.7,5.8,41,0.00,,,0.00,WUHU216WMR968SP,2013-01-27 20:45:00,
2013-01-27 14:50:00,62.1,39.2,29.77,SSW,192,4.0,6.7,42,0.00,,,0.00,WUHU216WMR968SP,2013-01-27 20:50:00,
2013-01-27 14:55:00,62.1,39.2,29.77,South,177,4.0,6.7,43,0.00,,,0.00,WUHU216WMR968SP,2013-01-27 20:55:00,
2013-01-27 15:00:00,62.2,39.2,29.77,SSE,164,3.7,6.7,43,0.00,,,0.00,WUHU216WMR968SP,2013-01-27 21:00:00,
2013-01-27 15:06:00,62.2,41.0,29.77,South,175,2.3,6.3,44,0.00,,,0.00,WUHU216WMR968SP,2013-01-27 21:06:00,
2013-01-27 15:11:00,62.2,39.2,29.77,South,172,2.8,4.9,43,0.00,,,0.00,WUHU216WMR968SP,2013-01-27 21:11:00,
2013-01-27 15:16:00,61.9,39.2,29.77,SSE,158,0.0,4.9,43,0.00,,,0.00,WUHU216WMR968SP,2013-01-27 21:16:00,
2013-01-27 15:21:00,61.7,41.0,29.77,South,186,2.2,4.0,44,0.00,,,0.00,WUHU216WMR968SP,2013-01-27 21:21:00,
2013-01-27 15:26:00,61.7,41.0,29.77,SE,128,2.2,3.6,44,0.00,,,0.00,WUHU216WMR968SP,2013-01-27 21:26:00,
2013-01-27 15:31:00,61.7,41.0,29.77,South,178,3.1,4.0,45,0.00,,,0.00,WUHU216WMR968SP,2013-01-27 21:31:00,
2013-01-27 15:36:00,61.9,41.0,29.77,SSE,167,2.7,5.4,45,0.00,,,0.00,WUHU216WMR968SP,2013-01-27 21:36:00,
2013-01-27 15:41:00,62.2,41.0,29.77,SSW,195,2.2,5.4,46,0.00,,,0.00,WUHU216WMR968SP,2013-01-27 21:41:00,
2013-01-27 15:46:00,62.6,41.0,29.77,South,172,4.7,6.3,45,0.00,,,0.00,WUHU216WMR968SP,2013-01-27 21:46:00,
2013-01-27 15:51:00,63.0,41.0,29.77,South,187,3.1,6.3,44,0.00,,,0.00,WUHU216WMR968SP,2013-01-27 21:51:00,
2013-01-27 15:56:00,63.0,41.0,29.77,South,181,4.5,6.3,44,0.00,,,0.00,WUHU216WMR968SP,2013-01-27 21:56:00,
2013-01-27 16:01:00,63.1,41.0,29.77,South,181,4.0,6.3,44,0.00,,,0.00,WUHU216WMR968SP,2013-01-27 22:01:00,
2013-01-27 16:06:00,62.8,41.0,29.77,SE,137,2.6,6.3,44,0.00,,,0.00,WUHU216WMR968SP,2013-01-27 22:06:00,
2013-01-27 16:11:00,62.6,41.0,29.77,South,176,2.9,5.4,44,0.00,,,0.00,WUHU216WMR968SP,2013-01-27 22:11:00,
2013-01-27 16:16:00,62.2,41.0,29.77,South,184,3.3,5.4,45,0.00,,,0.00,WUHU216WMR968SP,2013-01-27 22:16:00,
2013-01-27 16:21:00,62.1,41.0,29.77,SSE,153,3.3,5.8,45,0.00,,,0.00,WUHU216WMR968SP,2013-01-27 22:21:00,
2013-01-27 16:26:00,61.9,41.0,29.77,SSE,155,3.6,5.8,46,0.00,,,0.00,WUHU216WMR968SP,2013-01-27 22:26:00,
2013-01-27 16:31:00,61.9,41.0,29.77,SSE,165,3.3,6.3,46,0.00,,,0.00,WUHU216WMR968SP,2013-01-27 22:31:00,
2013-01-27 16:36:00,62.1,41.0,29.77,SSE,164,3.7,8.1,46,0.00,,,0.00,WUHU216WMR968SP,2013-01-27 22:36:00,
2013-01-27 16:41:00,61.9,41.0,29.77,South,172,3.5,8.1,46,0.00,,,0.00,WUHU216WMR968SP,2013-01-27 22:41:00,
2013-01-27 16:46:00,61.7,41.0,29.77,SE,145,2.7,6.7,46,0.00,,,0.00,WUHU216WMR968SP,2013-01-27 22:46:00,
2013-01-27 16:51:00,61.5,39.2,29.77,SSE,147,4.4,6.3,46,0.00,,,0.00,WUHU216WMR968SP,2013-01-27 22:51:00,
2013-01-27 16:56:00,61.2,39.2,29.77,ESE,103,4.0,6.3,46,0.00,,,0.00,WUHU216WMR968SP,2013-01-27 22:56:00,
2013-01-27 17:01:00,61.0,41.0,29.77,SSW,201,3.6,6.3,47,0.00,,,0.00,WUHU216WMR968SP,2013-01-27 23:01:00,
2013-01-27 17:06:00,60.6,41.0,29.77,South,180,4.9,7.6,47,0.00,,,0.00,WUHU216WMR968SP,2013-01-27 23:06:00,
2013-01-27 17:11:00,60.3,41.0,29.77,South,182,2.9,7.6,47,0.00,,,0.00,WUHU216WMR968SP,2013-01-27 23:11:00,
2013-01-27 17:16:00,59.7,39.2,29.77,SSW,195,4.5,8.7,48,0.00,,,0.00,WUHU216WMR968SP,2013-01-27 23:16:00,
2013-01-27 17:21:00,59.4,39.2,29.77,South,188,2.9,8.7,48,0.00,,,0.00,WUHU216WMR968SP,2013-01-27 23:21:00,
2013-01-27 17:26:00,59.2,41.0,29.77,SE,145,3.6,5.8,50,0.00,,,0.00,WUHU216WMR968SP,2013-01-27 23:26:00,
2013-01-27 17:31:00,59.4,41.0,29.77,SSE,157,2.9,5.8,50,0.00,,,0.00,WUHU216WMR968SP,2013-01-27 23:31:00,
2013-01-27 17:37:00,59.4,41.0,29.77,SE,138,2.2,5.8,50,0.00,,,0.00,WUHU216WMR968SP,2013-01-27 23:37:00,
2013-01-27 17:42:00,59.2,41.0,29.77,SSW,208,4.0,5.8,50,0.00,,,0.00,WUHU216WMR968SP,2013-01-27 23:42:00,
2013-01-27 17:47:00,58.8,41.0,29.77,SE,146,4.0,6.7,51,0.00,,,0.00,WUHU216WMR968SP,2013-01-27 23:47:00,
2013-01-27 17:52:00,58.6,41.0,29.77,South,173,4.2,6.7,51,0.00,,,0.00,WUHU216WMR968SP,2013-01-27 23:52:00,
2013-01-27 17:57:00,58.5,41.0,29.77,South,169,4.5,6.3,51,0.00,,,0.00,WUHU216WMR968SP,2013-01-27 23:57:00,
2013-01-27 18:02:00,58.1,41.0,29.77,ESE,109,4.9,8.3,52,0.00,,,0.00,WUHU216WMR968SP,2013-01-28 00:02:00,
2013-01-27 18:07:00,58.1,42.8,29.77,SSE,157,3.5,8.3,53,0.00,,,0.00,WUHU216WMR968SP,2013-01-28 00:07:00,
2013-01-27 18:12:00,57.9,39.2,29.77,South,173,2.7,5.8,52,0.00,,,0.00,WUHU216WMR968SP,2013-01-28 00:12:00,
2013-01-27 18:17:00,57.7,41.0,29.77,SSE,162,3.3,6.3,53,0.00,,,0.00,WUHU216WMR968SP,2013-01-28 00:17:00,
2013-01-27 18:22:00,57.6,41.0,29.77,South,171,3.1,7.6,53,0.00,,,0.00,WUHU216WMR968SP,2013-01-28 00:22:00,
2013-01-27 18:27:00,57.4,41.0,29.77,SE,134,2.5,7.6,53,0.00,,,0.00,WUHU216WMR968SP,2013-01-28 00:27:00,
2013-01-27 18:32:00,57.2,41.0,29.77,South,180,2.3,6.3,53,0.00,,,0.00,WUHU216WMR968SP,2013-01-28 00:32:00,
2013-01-27 18:37:00,57.2,41.0,29.77,South,183,3.6,5.8,53,0.00,,,0.00,WUHU216WMR968SP,2013-01-28 00:37:00,
2013-01-27 18:42:00,57.4,39.2,29.77,South,173,3.0,6.3,52,0.00,,,0.00,WUHU216WMR968SP,2013-01-28 00:42:00,
2013-01-27 18:47:00,57.6,39.2,29.77,South,179,3.8,6.3,51,0.00,,,0.00,WUHU216WMR968SP,2013-01-28 00:47:00,
2013-01-27 18:52:00,57.2,39.2,29.77,South,178,2.9,6.3,50,0.00,,,0.00,WUHU216WMR968SP,2013-01-28 00:52:00,
2013-01-27 18:57:00,56.7,39.2,29.77,South,189,4.5,6.3,51,0.00,,,0.00,WUHU216WMR968SP,2013-01-28 00:57:00,
2013-01-27 19:02:00,56.3,39.2,29.77,South,172,3.4,6.3,51,0.00,,,0.00,WUHU216WMR968SP,2013-01-28 01:02:00,
2013-01-27 19:07:00,55.9,39.2,29.77,SSE,154,3.9,8.7,53,0.00,,,0.00,WUHU216WMR968SP,2013-01-28 01:07:00,
2013-01-27 19:12:00,55.9,39.2,29.77,South,173,4.5,8.7,53,0.00,,,0.00,WUHU216WMR968SP,2013-01-28 01:12:00,
2013-01-27 19:17:00,55.8,39.2,29.77,SSE,162,4.1,6.3,53,0.00,,,0.00,WUHU216WMR968SP,2013-01-28 01:17:00,
2013-01-27 19:22:00,55.8,39.2,29.77,South,189,4.0,6.3,54,0.00,,,0.00,WUHU216WMR968SP,2013-01-28 01:22:00,
2013-01-27 19:27:00,55.8,39.2,29.77,SSE,164,3.9,6.3,54,0.00,,,0.00,WUHU216WMR968SP,2013-01-28 01:27:00,
2013-01-27 19:32:00,55.9,39.2,29.77,SSE,168,4.8,9.6,54,0.00,,,0.00,WUHU216WMR968SP,2013-01-28 01:32:00,
2013-01-27 19:37:00,55.9,39.2,29.77,SSE,161,4.7,9.6,54,0.00,,,0.00,WUHU216WMR968SP,2013-01-28 01:37:00,
2013-01-27 19:42:00,56.1,39.2,29.77,South,179,4.6,8.3,54,0.00,,,0.00,WUHU216WMR968SP,2013-01-28 01:42:00,
2013-01-27 19:47:00,56.3,41.0,29.77,South,181,4.9,8.1,54,0.00,,,0.00,WUHU216WMR968SP,2013-01-28 01:47:00,
2013-01-27 19:52:00,56.5,41.0,29.77,South,183,5.4,8.1,53,0.00,,,0.00,WUHU216WMR968SP,2013-01-28 01:52:00,
2013-01-27 19:57:00,56.3,41.0,29.77,SSW,192,4.9,8.3,54,0.00,,,0.00,WUHU216WMR968SP,2013-01-28 01:57:00,
2013-01-27 20:02:00,56.3,41.0,29.77,South,182,5.4,11.0,54,0.00,,,0.00,WUHU216WMR968SP,2013-01-28 02:02:00,
2013-01-27 20:07:00,56.1,39.2,29.77,South,177,5.0,11.0,54,0.00,,,0.00,WUHU216WMR968SP,2013-01-28 02:07:00,
2013-01-27 20:12:00,56.1,39.2,29.77,South,177,5.4,7.6,55,0.00,,,0.00,WUHU216WMR968SP,2013-01-28 02:12:00,
2013-01-27 20:17:00,55.9,39.2,29.77,South,171,4.5,7.6,55,0.00,,,0.00,WUHU216WMR968SP,2013-01-28 02:17:00,
2013-01-27 20:22:00,55.9,39.2,29.77,SSW,193,5.4,8.3,56,0.00,,,0.00,WUHU216WMR968SP,2013-01-28 02:22:00,
2013-01-27 20:27:00,55.9,39.2,29.77,South,177,4.9,8.3,56,0.00,,,0.00,WUHU216WMR968SP,2013-01-28 02:27:00,
2013-01-27 20:32:00,55.8,41.0,29.77,South,180,4.1,8.3,57,0.00,,,0.00,WUHU216WMR968SP,2013-01-28 02:32:00,
2013-01-27 20:37:00,55.8,41.0,29.77,SSW,199,5.8,8.3,57,0.00,,,0.00,WUHU216WMR968SP,2013-01-28 02:37:00,
2013-01-27 20:42:00,55.8,41.0,29.77,SSE,153,4.9,8.3,58,0.00,,,0.00,WUHU216WMR968SP,2013-01-28 02:42:00,
2013-01-27 20:47:00,55.9,41.0,29.77,South,171,6.5,8.1,59,0.00,,,0.00,WUHU216WMR968SP,2013-01-28 02:47:00,
2013-01-27 20:52:00,56.3,42.8,29.77,South,170,6.3,8.7,59,0.00,,,0.00,WUHU216WMR968SP,2013-01-28 02:52:00,
2013-01-27 20:57:00,56.7,42.8,29.77,SSE,165,6.3,10.5,57,0.00,,,0.00,WUHU216WMR968SP,2013-01-28 02:57:00,
2013-01-27 21:02:00,56.5,41.0,29.77,ESE,119,5.4,10.5,56,0.00,,,0.00,WUHU216WMR968SP,2013-01-28 03:02:00,
2013-01-27 21:07:00,56.3,42.8,29.77,SSE,161,5.4,8.7,57,0.00,,,0.00,WUHU216WMR968SP,2013-01-28 03:07:00,
2013-01-27 21:12:00,56.3,42.8,29.77,South,178,5.6,9.6,58,0.00,,,0.00,WUHU216WMR968SP,2013-01-28 03:12:00,
2013-01-27 21:17:00,56.3,42.8,29.77,South,172,5.8,9.6,59,0.00,,,0.00,WUHU216WMR968SP,2013-01-28 03:17:00,
2013-01-27 21:22:00,56.3,44.6,29.77,SSW,192,6.3,10.1,61,0.00,,,0.00,WUHU216WMR968SP,2013-01-28 03:22:00,
2013-01-27 21:27:00,56.3,44.6,29.77,SSE,166,5.6,10.1,61,0.00,,,0.00,WUHU216WMR968SP,2013-01-28 03:27:00,
2013-01-27 21:32:00,56.7,44.6,29.77,South,177,5.6,9.2,62,0.00,,,0.00,WUHU216WMR968SP,2013-01-28 03:32:00,
2013-01-27 21:37:00,56.7,44.6,29.77,SE,133,5.4,8.7,62,0.00,,,0.00,WUHU216WMR968SP,2013-01-28 03:37:00,
2013-01-27 21:42:00,56.8,44.6,29.77,SSW,193,6.3,8.7,62,0.00,,,0.00,WUHU216WMR968SP,2013-01-28 03:42:00,
2013-01-27 21:47:00,57.0,44.6,29.77,South,188,5.4,9.6,62,0.00,,,0.00,WUHU216WMR968SP,2013-01-28 03:47:00,
2013-01-27 21:52:00,57.2,44.6,29.77,South,173,6.1,11.0,61,0.00,,,0.00,WUHU216WMR968SP,2013-01-28 03:52:00,
2013-01-27 21:57:00,57.4,44.6,29.74,SSW,199,5.8,11.0,61,0.00,,,0.00,WUHU216WMR968SP,2013-01-28 03:57:00,
2013-01-27 22:02:00,57.6,44.6,29.74,South,172,5.5,11.0,62,0.00,,,0.00,WUHU216WMR968SP,2013-01-28 04:02:00,
2013-01-27 22:07:00,57.6,44.6,29.74,South,184,5.9,11.9,61,0.00,,,0.00,WUHU216WMR968SP,2013-01-28 04:07:00,
2013-01-27 22:12:00,57.6,44.6,29.74,SSE,167,5.1,11.9,62,0.00,,,0.00,WUHU216WMR968SP,2013-01-28 04:12:00,
2013-01-27 22:17:00,57.6,44.6,29.74,South,173,6.8,10.1,63,0.00,,,0.00,WUHU216WMR968SP,2013-01-28 04:17:00,
2013-01-27 22:22:00,57.7,44.6,29.74,South,177,6.0,10.1,63,0.00,,,0.00,WUHU216WMR968SP,2013-01-28 04:22:00,
2013-01-27 22:27:00,57.7,44.6,29.74,South,186,6.3,10.1,63,0.00,,,0.00,WUHU216WMR968SP,2013-01-28 04:27:00,
2013-01-27 22:32:00,57.7,44.6,29.74,South,172,6.6,8.7,63,0.00,,,0.00,WUHU216WMR968SP,2013-01-28 04:32:00,
2013-01-27 22:37:00,57.9,44.6,29.74,South,174,6.1,10.5,63,0.00,,,0.00,WUHU216WMR968SP,2013-01-28 04:37:00,
2013-01-27 22:42:00,57.9,44.6,29.74,South,179,6.5,11.0,63,0.00,,,0.00,WUHU216WMR968SP,2013-01-28 04:42:00,
2013-01-27 22:47:00,57.9,44.6,29.74,South,191,6.7,11.0,63,0.00,,,0.00,WUHU216WMR968SP,2013-01-28 04:47:00,
2013-01-27 22:52:00,57.9,44.6,29.74,South,183,8.1,10.5,63,0.00,,,0.00,WUHU216WMR968SP,2013-01-28 04:52:00,
2013-01-27 22:57:00,57.7,44.6,29.74,SSW,193,7.2,10.1,63,0.00,,,0.00,WUHU216WMR968SP,2013-01-28 04:57:00,
2013-01-27 23:00:00,57.7,44.6,29.74,SSE,160,7.1,10.5,64,0.00,,,0.00,WUHU216WMR968SP,2013-01-28 05:00:00,
2013-01-27 23:01:00,57.7,44.6,29.74,South,182,7.2,10.5,64,0.00,,,0.00,WUHU216WMR968SP,2013-01-28 05:01:00,
2013-01-27 23:03:00,57.9,44.6,29.74,South,175,6.7,11.0,64,0.00,,,0.00,WUHU216WMR968SP,2013-01-28 05:03:00,
2013-01-27 23:08:00,57.9,44.6,29.74,SSE,162,7.6,11.0,64,0.00,,,0.00,WUHU216WMR968SP,2013-01-28 05:08:00,
2013-01-27 23:13:00,57.9,44.6,29.74,SSE,168,6.9,11.0,64,0.00,,,0.00,WUHU216WMR968SP,2013-01-28 05:13:00,
2013-01-27 23:18:00,57.7,44.6,29.74,SSE,154,5.8,10.1,64,0.00,,,0.00,WUHU216WMR968SP,2013-01-28 05:18:00,
2013-01-27 23:23:00,57.7,44.6,29.74,South,170,6.7,9.6,64,0.00,,,0.00,WUHU216WMR968SP,2013-01-28 05:23:00,
2013-01-27 23:28:00,57.6,44.6,29.77,SSE,164,6.7,8.7,64,0.00,,,0.00,WUHU216WMR968SP,2013-01-28 05:28:00,
2013-01-27 23:33:00,57.6,44.6,29.77,South,188,6.3,10.1,64,0.00,,,0.00,WUHU216WMR968SP,2013-01-28 05:33:00,
2013-01-27 23:38:00,57.4,44.6,29.77,South,174,5.5,10.1,65,0.00,,,0.00,WUHU216WMR968SP,2013-01-28 05:38:00,
2013-01-27 23:43:00,57.6,46.4,29.77,South,185,5.5,10.1,66,0.00,,,0.00,WUHU216WMR968SP,2013-01-28 05:43:00,
2013-01-27 23:48:00,57.7,46.4,29.77,South,179,6.7,10.5,66,0.00,,,0.00,WUHU216WMR968SP,2013-01-28 05:48:00,
2013-01-27 23:53:00,57.6,46.4,29.77,SSW,194,6.3,10.5,66,0.00,,,0.00,WUHU216WMR968SP,2013-01-28 05:53:00,
2013-01-27 23:58:00,57.6,46.4,29.77,South,177,6.7,10.5,66,0.00,,,0.00,WUHU216WMR968SP,2013-01-28 05:58:00,